Time,TemperatureF,DewpointF,PressureIn,WindDirection,WindDirectionDegrees,WindSpeedMPH,WindSpeedGustMPH,Humidity,HourlyPrecipIn,Conditions,Clouds,dailyrainin,SolarRadiationWatts/m^2,SoftwareType,DateUTC
2013-03-22 06:55:00,59.2,56.0,29.84,SW,233,0.0,16.0,89,0.00,,,0.00,0,Wunderground v.1.15,2013-03-22 10:55:00,
2013-03-22 07:00:00,59.2,56.0,29.85,SW,233,0.0,0.0,89,0.00,,,0.00,0,Wunderground v.1.15,2013-03-22 11:00:00,
2013-03-22 07:10:00,59.2,55.6,29.85,SW,233,0.0,0.0,88,0.00,,,0.00,0,Wunderground v.1.15,2013-03-22 11:10:00,
2013-03-22 07:15:00,59.3,56.1,29.85,SW,233,0.0,0.0,89,0.00,,,0.00,0,Wunderground v.1.15,2013-03-22 11:15:00,
2013-03-22 07:20:00,59.3,55.7,29.85,SW,233,0.0,0.0,88,0.00,,,0.00,0,Wunderground v.1.15,2013-03-22 11:20:00,
2013-03-22 07:25:00,59.3,55.7,29.85,SW,233,0.0,0.0,88,0.00,,,0.00,0,Wunderground v.1.15,2013-03-22 11:25:00,
2013-03-22 07:30:00,59.5,55.9,29.86,SW,233,0.0,0.0,88,0.00,,,0.00,5,Wunderground v.1.15,2013-03-22 11:30:00,
2013-03-22 07:35:00,59.5,55.9,29.86,SW,233,0.0,0.0,88,0.00,,,0.00,7,Wunderground v.1.15,2013-03-22 11:35:00,
2013-03-22 07:40:00,59.5,56.3,29.86,SW,233,0.0,0.0,89,0.00,,,0.00,9,Wunderground v.1.15,2013-03-22 11:40:00,
2013-03-22 07:45:00,59.9,56.6,29.86,SW,233,0.0,0.0,89,0.00,,,0.00,16,Wunderground v.1.15,2013-03-22 11:45:00,
2013-03-22 07:55:00,60.5,57.2,29.86,SW,233,0.0,0.0,89,0.00,,,0.00,48,Wunderground v.1.15,2013-03-22 11:55:00,
2013-03-22 08:00:00,60.9,57.6,29.87,SW,233,0.0,0.0,89,0.00,,,0.00,35,Wunderground v.1.15,2013-03-22 12:00:00,
2013-03-22 08:10:00,61.6,58.0,29.87,SW,233,0.0,0.0,88,0.00,,,0.00,44,Wunderground v.1.15,2013-03-22 12:10:00,
2013-03-22 08:15:00,62.0,58.4,29.87,SW,233,0.0,0.0,88,0.00,,,0.00,46,Wunderground v.1.15,2013-03-22 12:15:00,
2013-03-22 08:20:00,62.7,59.1,29.87,SW,233,0.0,0.0,88,0.00,,,0.00,144,Wunderground v.1.15,2013-03-22 12:20:00,
2013-03-22 08:30:00,64.8,60.5,29.88,SW,233,0.0,0.0,86,0.00,,,0.00,208,Wunderground v.1.15,2013-03-22 12:30:00,
2013-03-22 08:35:00,65.6,60.3,29.88,SW,233,0.0,0.0,83,0.00,,,0.00,99,Wunderground v.1.15,2013-03-22 12:35:00,
2013-03-22 08:40:00,66.4,60.4,29.88,SW,233,0.0,0.0,81,0.00,,,0.00,100,Wunderground v.1.15,2013-03-22 12:40:00,
2013-03-22 08:45:00,67.1,60.4,29.88,SW,233,0.0,0.0,79,0.00,,,0.00,107,Wunderground v.1.15,2013-03-22 12:45:00,
2013-03-22 08:50:00,67.9,60.4,29.88,SW,233,0.0,0.0,77,0.00,,,0.00,172,Wunderground v.1.15,2013-03-22 12:50:00,
2013-03-22 08:55:00,68.6,60.4,29.88,SW,233,0.0,0.0,75,0.00,,,0.00,137,Wunderground v.1.15,2013-03-22 12:55:00,
2013-03-22 09:00:00,69.1,60.5,29.89,SW,233,0.0,0.0,74,0.00,,,0.00,130,Wunderground v.1.15,2013-03-22 13:00:00,
2013-03-22 09:10:00,70.3,60.8,29.89,WNW,301,1.0,1.0,72,0.00,,,0.00,179,Wunderground v.1.15,2013-03-22 13:10:00,
2013-03-22 09:15:00,70.9,61.0,29.90,WNW,296,0.0,1.0,71,0.00,,,0.00,227,Wunderground v.1.15,2013-03-22 13:15:00,
2013-03-22 09:20:00,71.1,60.4,29.90,WNW,287,1.0,1.0,69,0.00,,,0.00,160,Wunderground v.1.15,2013-03-22 13:20:00,
2013-03-22 09:25:00,71.8,60.7,29.90,WNW,285,2.0,2.0,68,0.00,,,0.00,452,Wunderground v.1.15,2013-03-22 13:25:00,
2013-03-22 09:30:00,72.5,60.9,29.90,WNW,282,2.0,4.0,67,0.00,,,0.00,252,Wunderground v.1.15,2013-03-22 13:30:00,
2013-03-22 09:35:00,72.8,60.8,29.90,WNW,292,2.0,5.0,66,0.00,,,0.00,192,Wunderground v.1.15,2013-03-22 13:35:00,
2013-03-22 09:45:00,73.2,60.3,29.91,WNW,298,3.0,11.0,64,0.00,,,0.00,292,Wunderground v.1.15,2013-03-22 13:45:00,
2013-03-22 09:50:00,73.2,60.3,29.91,NW,316,5.0,5.0,64,0.00,,,0.00,547,Wunderground v.1.15,2013-03-22 13:50:00,
2013-03-22 09:55:00,73.5,60.6,29.91,WNW,294,5.0,6.0,64,0.00,,,0.00,273,Wunderground v.1.15,2013-03-22 13:55:00,
2013-03-22 10:00:00,73.9,60.5,29.91,West,277,5.0,5.0,63,0.00,,,0.00,299,Wunderground v.1.15,2013-03-22 14:00:00,
2013-03-22 10:10:00,74.4,61.0,29.91,WNW,295,4.0,4.0,63,0.00,,,0.00,262,Wunderground v.1.15,2013-03-22 14:10:00,
2013-03-22 10:15:00,74.7,60.8,29.91,NNW,336,4.0,4.0,62,0.00,,,0.00,449,Wunderground v.1.15,2013-03-22 14:15:00,
2013-03-22 10:25:00,75.3,60.9,29.91,NNW,347,6.0,10.0,61,0.00,,,0.00,347,Wunderground v.1.15,2013-03-22 14:25:00,
2013-03-22 10:30:00,76.0,61.1,29.91,North,356,5.0,5.0,60,0.00,,,0.00,245,Wunderground v.1.15,2013-03-22 14:30:00,
2013-03-22 10:35:00,75.8,60.4,29.91,NW,311,5.0,11.0,59,0.00,,,0.00,255,Wunderground v.1.15,2013-03-22 14:35:00,
2013-03-22 10:40:00,75.4,60.5,29.91,NW,308,5.0,5.0,60,0.00,,,0.00,326,Wunderground v.1.15,2013-03-22 14:40:00,
2013-03-22 10:45:00,75.4,61.0,29.91,NNW,337,5.0,7.0,61,0.00,,,0.00,290,Wunderground v.1.15,2013-03-22 14:45:00,
2013-03-22 10:50:00,75.6,60.7,29.91,West,277,5.0,6.0,60,0.00,,,0.00,310,Wunderground v.1.15,2013-03-22 14:50:00,
2013-03-22 11:00:00,76.7,60.8,29.92,NW,325,6.0,6.0,58,0.00,,,0.00,398,Wunderground v.1.15,2013-03-22 15:00:00,
2013-03-22 11:10:00,76.5,60.6,29.92,NW,322,7.0,7.0,58,0.00,,,0.00,428,Wunderground v.1.15,2013-03-22 15:10:00,
2013-03-22 11:15:00,76.7,60.8,29.92,NW,306,6.0,7.0,58,0.00,,,0.00,292,Wunderground v.1.15,2013-03-22 15:15:00,
2013-03-22 11:20:00,76.5,61.1,29.92,NW,308,4.0,5.0,59,0.00,,,0.00,292,Wunderground v.1.15,2013-03-22 15:20:00,
2013-03-22 11:30:00,77.0,60.6,29.92,NNW,333,6.0,6.0,57,0.00,,,0.00,906,Wunderground v.1.15,2013-03-22 15:30:00,
2013-03-22 11:35:00,77.2,61.3,29.92,NW,304,6.0,6.0,58,0.00,,,0.00,417,Wunderground v.1.15,2013-03-22 15:35:00,
2013-03-22 11:40:00,77.0,60.6,29.92,NW,308,5.0,5.0,57,0.00,,,0.00,318,Wunderground v.1.15,2013-03-22 15:40:00,
2013-03-22 11:45:00,77.2,61.3,29.92,WNW,284,5.0,7.0,58,0.00,,,0.00,834,Wunderground v.1.15,2013-03-22 15:45:00,
2013-03-22 11:50:00,77.7,60.8,29.92,NW,316,5.0,8.0,56,0.00,,,0.00,401,Wunderground v.1.15,2013-03-22 15:50:00,
2013-03-22 11:55:00,78.5,61.5,29.92,NW,318,6.0,8.0,56,0.00,,,0.00,903,Wunderground v.1.15,2013-03-22 15:55:00,
2013-03-22 12:01:00,79.2,61.1,29.92,NW,311,6.0,6.0,54,0.00,,,0.00,945,Wunderground v.1.15,2013-03-22 16:01:00,
2013-03-22 12:10:00,79.8,62.2,29.92,WNW,284,5.0,7.0,55,0.00,,,0.00,992,Wunderground v.1.15,2013-03-22 16:10:00,
2013-03-22 12:15:00,79.9,61.8,29.92,WNW,287,5.0,7.0,54,0.00,,,0.00,1036,Wunderground v.1.15,2013-03-22 16:15:00,
2013-03-22 12:20:00,79.4,61.8,29.92,NW,315,6.0,6.0,55,0.00,,,0.00,209,Wunderground v.1.15,2013-03-22 16:20:00,
2013-03-22 12:25:00,78.6,61.6,29.92,NW,318,5.0,10.0,56,0.00,,,0.00,273,Wunderground v.1.15,2013-03-22 16:25:00,
2013-03-22 12:30:00,77.7,61.3,29.92,North,359,6.0,6.0,57,0.00,,,0.00,252,Wunderground v.1.15,2013-03-22 16:30:00,
2013-03-22 12:35:00,77.4,61.5,29.92,WNW,299,6.0,6.0,58,0.00,,,0.00,318,Wunderground v.1.15,2013-03-22 16:35:00,
2013-03-22 12:40:00,77.2,61.3,29.92,WNW,302,6.0,6.0,58,0.00,,,0.00,296,Wunderground v.1.15,2013-03-22 16:40:00,
2013-03-22 12:45:00,76.8,61.4,29.92,North,0,5.0,6.0,59,0.00,,,0.00,238,Wunderground v.1.15,2013-03-22 16:45:00,
2013-03-22 12:55:00,76.5,61.6,29.92,NW,306,5.0,6.0,60,0.00,,,0.00,248,Wunderground v.1.15,2013-03-22 16:55:00,
2013-03-22 13:00:00,76.3,61.4,29.91,WNW,302,4.0,4.0,60,0.00,,,0.00,260,Wunderground v.1.15,2013-03-22 17:00:00,
2013-03-22 13:10:00,75.8,61.4,29.91,West,280,5.0,6.0,61,0.00,,,0.00,260,Wunderground v.1.15,2013-03-22 17:10:00,
2013-03-22 13:15:00,75.8,61.8,29.91,WNW,295,5.0,6.0,62,0.00,,,0.00,285,Wunderground v.1.15,2013-03-22 17:15:00,
2013-03-22 13:25:00,75.3,61.4,29.91,WNW,294,6.0,6.0,62,0.00,,,0.00,135,Wunderground v.1.15,2013-03-22 17:25:00,
2013-03-22 13:30:00,75.1,61.6,29.90,NW,311,6.0,6.0,63,0.00,,,0.00,202,Wunderground v.1.15,2013-03-22 17:30:00,
2013-03-22 13:35:00,74.9,61.9,29.90,WNW,302,6.0,6.0,64,0.00,,,0.00,158,Wunderground v.1.15,2013-03-22 17:35:00,
2013-03-22 13:40:00,74.7,61.7,29.90,West,275,6.0,6.0,64,0.00,,,0.00,123,Wunderground v.1.15,2013-03-22 17:40:00,
2013-03-22 13:45:00,74.4,61.4,29.90,NW,318,7.0,8.0,64,0.00,,,0.00,153,Wunderground v.1.15,2013-03-22 17:45:00,
2013-03-22 13:50:00,74.2,61.7,29.90,WNW,301,7.0,7.0,65,0.00,,,0.00,208,Wunderground v.1.15,2013-03-22 17:50:00,
2013-03-22 13:55:00,74.4,62.3,29.90,WNW,294,5.0,7.0,66,0.00,,,0.00,213,Wunderground v.1.15,2013-03-22 17:55:00,
2013-03-22 14:00:00,74.6,62.5,29.89,WNW,301,5.0,5.0,66,0.00,,,0.00,185,Wunderground v.1.15,2013-03-22 18:00:00,
2013-03-22 14:10:00,74.4,62.7,29.89,NW,306,6.0,6.0,67,0.00,,,0.00,276,Wunderground v.1.15,2013-03-22 18:10:00,
2013-03-22 14:15:00,74.0,62.8,29.88,NW,313,7.0,7.0,68,0.00,,,0.00,174,Wunderground v.1.15,2013-03-22 18:15:00,
2013-03-22 14:20:00,73.7,62.5,29.88,NW,308,6.0,6.0,68,0.00,,,0.00,230,Wunderground v.1.15,2013-03-22 18:20:00,
2013-03-22 14:25:00,73.7,62.5,29.88,WNW,282,5.0,6.0,68,0.00,,,0.00,171,Wunderground v.1.15,2013-03-22 18:25:00,
2013-03-22 14:30:00,73.9,63.5,29.88,WNW,299,5.0,5.0,70,0.00,,,0.00,204,Wunderground v.1.15,2013-03-22 18:30:00,
2013-03-22 14:40:00,73.7,64.5,29.88,NW,304,4.0,6.0,73,0.00,,,0.00,276,Wunderground v.1.15,2013-03-22 18:40:00,
2013-03-22 14:45:00,73.7,65.3,29.87,WNW,289,4.0,6.0,75,0.00,,,0.00,178,Wunderground v.1.15,2013-03-22 18:45:00,
2013-03-22 14:50:00,73.5,65.1,29.87,NW,312,4.0,5.0,75,0.00,,,0.01,155,Wunderground v.1.15,2013-03-22 18:50:00,
2013-03-22 14:55:00,73.3,65.3,29.87,NW,311,4.0,6.0,76,0.00,,,0.01,220,Wunderground v.1.15,2013-03-22 18:55:00,
2013-03-22 15:00:00,73.0,65.0,29.87,NW,305,4.0,4.0,76,0.00,,,0.01,104,Wunderground v.1.15,2013-03-22 19:00:00,
2013-03-22 15:10:00,72.7,64.7,29.87,NNW,330,4.0,4.0,76,0.00,,,0.01,111,Wunderground v.1.15,2013-03-22 19:10:00,
2013-03-22 15:15:00,72.7,65.1,29.86,West,270,3.0,7.0,77,0.00,,,0.01,266,Wunderground v.1.15,2013-03-22 19:15:00,
2013-03-22 15:20:00,72.7,65.8,29.86,NW,309,4.0,5.0,79,0.00,,,0.02,151,Wunderground v.1.15,2013-03-22 19:20:00,
2013-03-22 15:25:00,72.3,65.4,29.86,West,265,4.0,5.0,79,0.00,,,0.02,185,Wunderground v.1.15,2013-03-22 19:25:00,
2013-03-22 15:30:00,72.3,65.8,29.85,NW,312,4.0,4.0,80,0.00,,,0.02,157,Wunderground v.1.15,2013-03-22 19:30:00,
2013-03-22 15:35:00,72.3,65.8,29.85,NW,316,4.0,4.0,80,0.00,,,0.02,153,Wunderground v.1.15,2013-03-22 19:35:00,
2013-03-22 15:40:00,72.7,66.2,29.85,WNW,294,5.0,7.0,80,0.00,,,0.02,153,Wunderground v.1.15,2013-03-22 19:40:00,
2013-03-22 15:50:00,74.4,66.7,29.85,WNW,295,5.0,5.0,77,0.00,,,0.02,366,Wunderground v.1.15,2013-03-22 19:50:00,
2013-03-22 15:55:00,75.8,67.3,29.85,NW,313,4.0,5.0,75,0.00,,,0.02,904,Wunderground v.1.15,2013-03-22 19:55:00,
2013-03-22 16:00:00,75.8,66.1,29.84,NNW,344,5.0,5.0,72,0.00,,,0.02,289,Wunderground v.1.15,2013-03-22 20:00:00,
2013-03-22 16:10:00,75.8,65.7,29.84,NNW,339,6.0,6.0,71,0.00,,,0.02,394,Wunderground v.1.15,2013-03-22 20:10:00,
2013-03-22 16:20:00,76.3,66.2,29.84,WNW,299,3.0,6.0,71,0.00,,,0.02,227,Wunderground v.1.15,2013-03-22 20:20:00,
2013-03-22 16:25:00,76.0,65.5,29.84,West,280,4.0,7.0,70,0.00,,,0.02,253,Wunderground v.1.15,2013-03-22 20:25:00,
2013-03-22 16:30:00,75.8,65.7,29.84,NW,316,4.0,4.0,71,0.00,,,0.02,141,Wunderground v.1.15,2013-03-22 20:30:00,
2013-03-22 16:35:00,75.6,65.5,29.84,NNW,336,4.0,4.0,71,0.00,,,0.02,116,Wunderground v.1.15,2013-03-22 20:35:00,
2013-03-22 16:40:00,75.4,65.3,29.84,NW,313,3.0,4.0,71,0.00,,,0.02,113,Wunderground v.1.15,2013-03-22 20:40:00,
2013-03-22 16:45:00,75.3,65.6,29.84,WNW,296,4.0,7.0,72,0.00,,,0.02,144,Wunderground v.1.15,2013-03-22 20:45:00,
2013-03-22 16:50:00,74.9,65.3,29.84,NW,315,5.0,6.0,72,0.00,,,0.02,114,Wunderground v.1.15,2013-03-22 20:50:00,
2013-03-22 17:00:00,74.7,65.5,29.85,North,0,4.0,6.0,73,0.00,,,0.02,148,Wunderground v.1.15,2013-03-22 21:00:00,
2013-03-22 17:10:00,74.9,65.7,29.85,NW,304,4.0,5.0,73,0.00,,,0.02,248,Wunderground v.1.15,2013-03-22 21:10:00,
2013-03-22 17:15:00,75.3,66.4,29.84,NW,319,3.0,5.0,74,0.00,,,0.02,255,Wunderground v.1.15,2013-03-22 21:15:00,
2013-03-22 17:20:00,75.6,66.3,29.84,NNW,329,2.0,2.0,73,0.00,,,0.02,206,Wunderground v.1.15,2013-03-22 21:20:00,
2013-03-22 17:30:00,75.6,66.3,29.84,NW,322,3.0,4.0,73,0.00,,,0.02,190,Wunderground v.1.15,2013-03-22 21:30:00,
2013-03-22 17:35:00,75.8,66.5,29.84,NW,304,4.0,4.0,73,0.00,,,0.02,399,Wunderground v.1.15,2013-03-22 21:35:00,
2013-03-22 17:40:00,75.6,66.3,29.84,West,265,5.0,5.0,73,0.00,,,0.02,104,Wunderground v.1.15,2013-03-22 21:40:00,
2013-03-22 17:45:00,75.4,66.1,29.84,West,270,5.0,6.0,73,0.00,,,0.02,100,Wunderground v.1.15,2013-03-22 21:45:00,
2013-03-22 17:50:00,75.1,66.2,29.84,WNW,299,5.0,5.0,74,0.00,,,0.02,127,Wunderground v.1.15,2013-03-22 21:50:00,
2013-03-22 17:55:00,75.1,66.6,29.84,NNW,332,3.0,5.0,75,0.00,,,0.02,90,Wunderground v.1.15,2013-03-22 21:55:00,
2013-03-22 18:00:00,74.7,66.6,29.84,North,0,3.0,6.0,76,0.00,,,0.02,83,Wunderground v.1.15,2013-03-22 22:00:00,
2013-03-22 18:10:00,74.2,66.5,29.84,NW,319,3.0,3.0,77,0.00,,,0.02,46,Wunderground v.1.15,2013-03-22 22:10:00,
2013-03-22 18:15:00,74.0,67.1,29.85,NW,319,3.0,5.0,79,0.00,,,0.03,32,Wunderground v.1.15,2013-03-22 22:15:00,
2013-03-22 18:20:00,73.7,67.1,29.85,WNW,301,2.0,2.0,80,0.00,,,0.03,37,Wunderground v.1.15,2013-03-22 22:20:00,
2013-03-22 18:25:00,73.3,67.1,29.85,WNW,296,3.0,4.0,81,0.00,,,0.03,84,Wunderground v.1.15,2013-03-22 22:25:00,
2013-03-22 18:35:00,73.0,67.2,29.85,NW,316,3.0,5.0,82,0.00,,,0.03,58,Wunderground v.1.15,2013-03-22 22:35:00,